TimeEDT,TemperatureF,Dew PointF,Humidity,Sea Level PressureIn,VisibilityMPH,Wind Direction,Wind SpeedMPH,Gust SpeedMPH,PrecipitationIn,Events,Conditions,WindDirDegrees,DateUTC
12:54 AM,73.0,71.1,93,30.29,10.0,Calm,Calm,-,N/A,,Clear,0,2013-07-17 04:54:00
1:54 AM,73.0,71.1,93,30.28,9.0,Calm,Calm,-,N/A,,Clear,0,2013-07-17 05:54:00
2:54 AM,71.1,71.1,100,30.28,5.0,West,3.5,-,N/A,,Clear,270,2013-07-17 06:54:00
3:20 AM,71.6,71.6,100,30.31,1.8,Calm,Calm,-,N/A,,Clear,0,2013-07-17 07:20:00
3:34 AM,69.8,69.8,100,30.30,1.0,West,3.5,-,N/A,,Mist,280,2013-07-17 07:34:00
3:38 AM,71.6,69.8,94,30.30,2.5,Calm,Calm,-,N/A,,Scattered Clouds,0,2013-07-17 07:38:00
3:41 AM,71.6,71.6,100,30.30,1.5,Calm,Calm,-,N/A,,Mostly Cloudy,0,2013-07-17 07:41:00
3:50 AM,71.6,71.6,100,30.30,0.5,Calm,Calm,-,N/A,Fog,Fog,0,2013-07-17 07:50:00
3:54 AM,71.1,70.0,96,30.29,0.5,Calm,Calm,-,N/A,Fog,Fog,0,2013-07-17 07:54:00
4:06 AM,69.8,69.8,100,30.30,1.5,Calm,Calm,-,N/A,,Mostly Cloudy,0,2013-07-17 08:06:00
4:14 AM,71.6,69.8,94,30.30,0.8,Calm,Calm,-,N/A,,Mist,0,2013-07-17 08:14:00
4:30 AM,69.8,69.8,100,30.31,3.0,Calm,Calm,-,N/A,,Mostly Cloudy,0,2013-07-17 08:30:00
4:54 AM,71.1,70.0,96,30.29,3.0,Calm,Calm,-,N/A,,Mostly Cloudy,0,2013-07-17 08:54:00
4:56 AM,71.6,69.8,94,30.31,1.8,Calm,Calm,-,N/A,,Mostly Cloudy,0,2013-07-17 08:56:00
5:04 AM,71.6,69.8,94,30.31,0.5,Calm,Calm,-,N/A,Fog,Fog,0,2013-07-17 09:04:00
5:12 AM,69.8,69.8,100,30.31,4.0,Calm,Calm,-,N/A,,Mostly Cloudy,0,2013-07-17 09:12:00
5:22 AM,69.8,69.8,100,30.31,8.0,Calm,Calm,-,N/A,,Scattered Clouds,0,2013-07-17 09:22:00
5:46 AM,69.8,68.0,94,30.31,1.8,Calm,Calm,-,N/A,,Partly Cloudy,0,2013-07-17 09:46:00
5:54 AM,69.1,69.1,100,30.30,4.0,Calm,Calm,-,N/A,,Partly Cloudy,0,2013-07-17 09:54:00
5:57 AM,69.8,69.8,100,30.31,1.2,Calm,Calm,-,N/A,,Partly Cloudy,0,2013-07-17 09:57:00
6:00 AM,69.8,69.8,100,30.31,0.8,Calm,Calm,-,N/A,,Mist,0,2013-07-17 10:00:00
6:07 AM,69.8,68.0,94,30.32,1.2,Calm,Calm,-,N/A,,Partly Cloudy,0,2013-07-17 10:07:00
6:13 AM,69.8,69.8,100,30.32,4.0,Calm,Calm,-,N/A,,Partly Cloudy,0,2013-07-17 10:13:00
6:16 AM,69.8,69.8,100,30.32,1.2,Calm,Calm,-,N/A,,Scattered Clouds,0,2013-07-17 10:16:00
6:18 AM,69.8,68.0,94,30.32,0.8,Calm,Calm,-,N/A,,Mist,0,2013-07-17 10:18:00
6:27 AM,69.8,69.8,100,30.32,2.0,Calm,Calm,-,N/A,,Mostly Cloudy,0,2013-07-17 10:27:00
6:45 AM,69.8,69.8,100,30.33,3.0,Calm,Calm,-,N/A,,Mostly Cloudy,0,2013-07-17 10:45:00
6:54 AM,70.0,69.1,97,30.32,0.8,Calm,Calm,-,N/A,Fog,Shallow Fog,0,2013-07-17 10:54:00
7:01 AM,69.8,69.8,100,30.33,10.0,Calm,Calm,-,N/A,,Partly Cloudy,0,2013-07-17 11:01:00
7:54 AM,72.0,71.1,97,30.32,5.0,Calm,Calm,-,N/A,,Clear,0,2013-07-17 11:54:00
8:54 AM,79.0,72.0,79,30.34,10.0,Calm,Calm,-,N/A,,Partly Cloudy,0,2013-07-17 12:54:00
9:54 AM,82.9,73.0,72,30.33,10.0,Calm,Calm,-,N/A,,Clear,0,2013-07-17 13:54:00
10:54 AM,86.0,72.0,63,30.32,10.0,WNW,3.5,-,N/A,,Clear,300,2013-07-17 14:54:00
11:54 AM,89.1,71.1,55,30.32,10.0,NW,4.6,-,N/A,,Partly Cloudy,310,2013-07-17 15:54:00
12:54 PM,88.0,71.1,57,30.30,10.0,North,4.6,-,N/A,,Partly Cloudy,350,2013-07-17 16:54:00
1:54 PM,90.0,70.0,52,30.30,10.0,Variable,6.9,-,N/A,,Partly Cloudy,0,2013-07-17 17:54:00
2:54 PM,91.9,71.1,50,30.27,10.0,Calm,Calm,-,N/A,,Partly Cloudy,0,2013-07-17 18:54:00
3:54 PM,91.0,69.1,48,30.25,10.0,West,3.5,-,N/A,,Clear,280,2013-07-17 19:54:00
4:54 PM,91.0,70.0,50,30.23,10.0,WSW,3.5,-,N/A,,Clear,250,2013-07-17 20:54:00
5:54 PM,91.0,71.1,52,30.22,10.0,NW,5.8,-,N/A,,Clear,310,2013-07-17 21:54:00
6:54 PM,90.0,72.0,55,30.20,10.0,NW,5.8,-,N/A,,Clear,310,2013-07-17 22:54:00
7:54 PM,88.0,72.0,59,30.19,10.0,NW,4.6,-,N/A,,Clear,310,2013-07-17 23:54:00
8:54 PM,82.9,73.9,74,30.18,10.0,Calm,Calm,-,N/A,,Clear,0,2013-07-18 00:54:00
9:54 PM,80.1,75.0,85,30.19,10.0,Calm,Calm,-,N/A,,Clear,0,2013-07-18 01:54:00
10:54 PM,78.1,73.9,87,30.21,10.0,Calm,Calm,-,N/A,,Clear,0,2013-07-18 02:54:00
11:54 PM,75.9,73.9,94,30.20,10.0,Calm,Calm,-,N/A,,Clear,0,2013-07-18 03:54:00